Regional Weather Roundup
Issued by NWS Kansas City/Pleasant Hill, MO

Home | Current Version | Previous Version | Text Only | Print | Product List | Glossary On
Versions: 1 2 3 4 5 6 7 8 9 10 11 12 13 14 15 16 17 18 19 20 21 22 23 24 25 26 27
000
ASUS43 KEAX 251910
RWREAX

WEATHER ROUNDUP FOR EASTERN KANSAS AND NORTHWEST MISSOURI
NATIONAL WEATHER SERVICE KANSAS CITY/PLEASANT HILL MO
100 PM CST SAT FEB 25 2017

KSZ040-057-103>105-MOZ028-029-037-043-252000-
...KANSAS CITY METROPOLITAN AREA...

CITY           SKY/WX    TMP DP  RH WIND       PRES   REMARKS
K.C. INTL      MOSUNNY   38  12  34 VRB7      30.15F WCI  33
K.C. DOWNTOWN  SUNNY     39   9  29 NW8       30.16F WCI  33
LEES SUMMIT    SUNNY     38  11  32 NE6       30.15F WCI  33
OLATHE - IXD   SUNNY     36  15  42 VRB6      30.16F WCI  31
OLATHE - OJC   SUNNY     37  11  34 N7        30.15F WCI  32
LAWRENCE       SUNNY     38  15  39 SW6       30.16F WCI  33

$$

MOZ001>008-011>017-020>025-030>033-038>040-044>046-053-054-252000-
...NORTHERN AND CENTRAL MISSOURI...

CITY           SKY/WX    TMP DP  RH WIND       PRES   REMARKS
ST. JOSEPH     MOSUNNY   32  19  58 S3        30.16F
MOSBY          PTCLDY    36  10  35 W3        30.16F
WARRENSBURG    SUNNY     37   9  30 NW10      30.15F WCI  30
WHITEMAN AFB   MOSUNNY   39   8  27 NW8G16    30.13F WCI  33
CLINTON        SUNNY     39   9  28 NW12      30.16F WCI  32
SEDALIA        SUNNY     40  10  29 NW13G22   30.15F WCI  32
WARSAW         NOT AVBL
CHILLICOTHE      N/A     37  14  38 VRB3      30.15S
KIRKSVILLE     SUNNY     34  14  43 NW15G22   30.09S WCI  24

$$

MOZ041-047>049-056>058-063>065-088>090-097-252000-
...EASTERN AND SOUTHERN MISSOURI...

CITY           SKY/WX    TMP DP  RH WIND       PRES   REMARKS
ST. LOUIS INTL MOSUNNY   38  14  37 W16G25    30.08S WCI  29
SPIRIT OF STL  MOSUNNY   39  14  36 W13G23    30.08F WCI  31
COLUMBIA       SUNNY     37  12  35 NW17G23   30.11F WCI  27
JEFFERSON CITY SUNNY     36  12  37 NW12G23   30.13F WCI  28
ROLLA          FLURRIES  36  12  37 NW16G23   30.09F WCI  26
OSAGE BEACH    SUNNY     38   9  30 NW7G23    30.14F WCI  33
SPRINGFIELD    SUNNY     40  15  36 NW15      30.15F WCI  32
BRANSON        SUNNY     39  14  35 NW10      30.16F WCI  32
JOPLIN         SUNNY     39  16  39 NW6       30.20F WCI  35
WEST PLAINS    SUNNY     42  15  33 NW9G22    30.12S

$$

IAZ060-094-KSZ022-034>040-054-083-096-NEZ052-066-093-252000-
...KANSAS...SOUTHEAST NEBRASKA AND IOWA...

CITY           SKY/WX    TMP DP  RH WIND       PRES   REMARKS
TOPEKA         SUNNY     38  13  35 MISG      30.16F
MANHATTAN      SUNNY     39  13  34 VRB7      30.15F WCI  34
EMPORIA        SUNNY     39   9  29 VRB7      30.15F WCI  34
CHANUTE        SUNNY     41  10  28 CALM      30.19F
WICHITA        PTSUNNY   38  13  35 SW5       30.16F WCI  34
OMAHA          CLOUDY    30  15  53 SW9       30.10F WCI  22
LINCOLN        MOSUNNY   28  17  63 SW7       30.12F WCI  21
FALLS CITY     SUNNY     33  17  51 VRB3      30.14F
LAMONI         CLOUDY    31  17  56 W10       30.09F WCI  22
DES MOINES     CLOUDY    28  13  53 NW6       30.08F WCI  22

$$





USA.gov is the U.S. government's official web portal to all federal, state and local government web resources and services.